Preview of NWS' New Version of Forecast
This preview is not operational and should not be used for support decisions.

Regional Weather Roundup (RWR)

Issued by National Weather Service (NWS)

                            
000
ASUS43 KLSX 201757
RWRMO 

WEATHER SUMMARY FOR MISSOURI
NATIONAL WEATHER SERVICE SPRINGFIELD MO
100 PM CDT SAT APR 20 2019

NOTE: "FAIR" INDICATES FEW OR NO CLOUDS BELOW 12,000 FEET WITH NO
       SIGNIFICANT WEATHER AND/OR OBSTRUCTIONS TO VISIBILITY.
       CURRENT SKY AND/OR WEATHER CONDITIONS ARE NOT AVAILABLE FOR
       CHILLICOTHE AND FARMINGTON.

MOZ001>031-035>038-043-044-053-054-201900-
...NORTHERN AND WESTERN MISSOURI...
  
CITY           SKY/WX    TMP DP  RH WIND       PRES   REMARKS
KANSAS CTY INT MOSUNNY   69  39  33 SW10G18   29.93F                  
6HR MIN TEMP:  37; 6HR MAX TEMP:  69;                                

LEE'S SUMMIT   SUNNY     68  38  33 SW8       29.95F                  
6HR MIN TEMP:  41; 6HR MAX TEMP:  68;                                

ST JOSEPH      SUNNY     71  38  29 S13       29.90F                  
6HR MIN TEMP:  35; 6HR MAX TEMP:  72;                                

CHILLICOTHE      N/A     68  36  30 VRB5      29.93F                  
6HR MIN TEMP:  34; 6HR MAX TEMP:  68;                                

     
$$
MOZ066>068-077>081-088>096-101>105-201900-
...SOUTHWEST MISSOURI...
  
CITY           SKY/WX    TMP DP  RH WIND       PRES   REMARKS
SPRINGFIELD    SUNNY     65  35  33 NW3       29.99F                  
6HR MIN TEMP:  39; 6HR MAX TEMP:  66;                                

JOPLIN         SUNNY     67  39  35 SW9G21    30.01F                  
6HR MIN TEMP:  35; 6HR MAX TEMP:  67;                                

BRANSON        SUNNY     64  32  29 W7        30.01F                  
               
$$
MOZ032>034-039>042-045>050-055>058-069>072-201900-
...CENTRAL MISSOURI...  
  
CITY           SKY/WX    TMP DP  RH WIND       PRES   REMARKS
COLUMBIA       NOT AVBL                                               
JEFFERSON CITY SUNNY     65  29  25 VRB5      29.95F                  
6HR MIN TEMP:  39; 6HR MAX TEMP:  66;                                

ROLLA          SUNNY     63  31  30 N6G20     29.96F                  
6HR MIN TEMP:  41; 6HR MAX TEMP:  63;                                

SEDALIA        SUNNY     63  38  39 W6        29.97F                  
6HR MIN TEMP:  41; 6HR MAX TEMP:  63;                                

WARRENSBURG    SUNNY     66  34  30 SW5       29.96F                  
               
$$
MOZ051-052-059>065-201900-
...EAST CENTRAL MISSOURI...
  
CITY           SKY/WX    TMP DP  RH WIND       PRES   REMARKS
ST LOUIS INTL  SUNNY     63  27  25 NW12G21   29.91F                  
6HR MIN TEMP:  45; 6HR MAX TEMP:  63;                                

                   
$$
MOZ072>076-082>087-097>100-106>115-201900-
...SOUTH CENTRAL AND SOUTHEAST MISSOURI...
  
CITY           SKY/WX    TMP DP  RH WIND       PRES   REMARKS
CAPE GIRARDEAU NOT AVBL                                               
POPLAR BLUFF   FAIR      67  30  25 N17G29    29.89F                  
6HR MIN TEMP:  44; 6HR MAX TEMP:  67;                                

WEST PLAINS    SUNNY     65  30  27 NW10G22   29.97F                  
6HR MIN TEMP:  43; 6HR MAX TEMP:  66;                                

                                       
$$